Location: Unspecified
(0.0000°N, 0.0000°E)
Time: 14:05:44
(UTC+00:00)

Explorer 11/Cluster Stage 4 - Pass Details

Date: 02 March 2024
Orbit: 465 x 1219 km, 28.8° (Epoch: 24 April)

Event Time Altitude Azimuth Distance (km) Brightness Sun altitude
Exits shadow 04:57:45 13° 326° (NW) 2,700 8.9 -18.4°
Maximum altitude 05:03:24 34° 26° (NNE) 1,514 8.2 -17.0°
Drops below altitude 10° 05:08:45 10° 90° (E) 2,441 10.5 -15.7°
Sets 05:11:16 0° 100° (E) 3,250 11.7 -15.1°
